Theta_e
342 344 347 347 354 356 359 356 349 348 349 348 349 351 352 351 355 365 346 345 346 346 346 345 343 343 342 341 340 341 340 340 338 337 336 335 334 333 331 330 331 332 332 332 334 336 338 339 340
348 344 344 348 355 362 359 350 348 349 348 347 348 349 350 355 348 348 346 345 346 346 346 345 342 341 340 338 337 335 335 334 333 331 328 326 325 327 327 328 329 329 329 329 328 328 329 330 333
346 343 349 350 356 361 354 349 346 343 343 344 346 346 349 352 347 345 346 346 346 346 346 343 338 337 336 335 335 333 333 332 331 329 328 328 328 327 327 327 328 328 329 329 329 328 327 326 325
346 346 346 350 355 346 346 345 340 342 341 343 344 351 348 345 345 345 345 346 345 345 343 339 333 334 334 332 332 332 331 330 329 328 326 325 326 326 326 327 327 328 328 329 329 329 328 328 327
343 346 350 350 346 344 343 342 342 341 340 343 344 349 351 346 345 345 346 343 342 343 342 337 334 331 329 326 322 322 322 320 320 322 324 323 325 326 327 327 327 327 327 327 328 328 328 328 328
346 343 344 345 344 343 343 343 343 341 340 340 343 348 352 346 346 345 344 343 342 342 339 334 331 331 328 324 322 321 320 319 319 321 320 325 324 326 322 325 325 327 326 326 327 326 327 327 327
345 342 340 341 342 343 342 342 344 341 341 341 341 346 351 346 345 345 344 344 342 342 338 334 332 329 322 321 321 321 320 320 319 319 318 317 317 317 318 320 323 321 325 325 325 325 320 318 317
343 339 341 339 342 342 339 341 342 343 344 340 341 342 352 346 345 344 342 342 341 339 336 336 333 331 329 327 320 321 322 321 320 320 318 320 323 323 322 322 318 315 322 324 324 322 318 317 316
340 343 341 340 340 342 342 342 339 340 342 340 342 343 344 345 344 343 342 341 340 336 335 334 333 332 331 330 328 322 322 322 325 325 323 324 325 325 323 322 319 315 314 317 320 317 317 316 318
343 344 343 341 340 341 340 342 344 343 342 344 345 346 345 345 344 343 341 340 338 335 334 333 331 330 330 328 328 328 330 332 330 327 327 327 326 326 323 323 321 320 320 320 318 319 319 320 322
342 348 340 341 341 340 342 341 341 344 346 343 345 349 346 345 344 343 341 340 337 335 334 332 329 329 330 326 327 328 329 329 329 328 328 328 327 327 326 324 324 323 323 323 322 322 322 321 321
344 340 341 341 342 342 343 341 343 343 343 345 342 347 346 346 344 343 340 339 336 335 335 333 329 330 328 328 327 327 328 327 327 327 328 328 327 327 326 325 324 323 322 322 322 322 322 322 322
342 341 341 340 341 342 342 341 342 342 342 346 343 346 348 346 343 342 340 337 335 335 336 334 330 329 328 327 328 329 329 329 328 327 327 327 328 328 327 326 325 324 323 322 322 321 321 321 321
339 339 339 339 340 342 342 342 341 341 342 347 345 346 347 345 343 341 339 337 334 334 335 334 332 330 329 328 330 329 330 329 329 328 328 329 329 328 328 326 325 324 323 323 323 322 322 321 321
337 338 338 339 340 343 344 345 344 343 344 347 347 346 346 345 342 341 339 337 335 335 336 336 332 330 331 330 330 330 330 329 329 329 329 330 329 329 329 328 325 324 324 324 324 323 322 321 321
338 339 344 340 339 342 345 343 345 343 346 347 346 346 346 344 342 341 339 338 337 336 337 335 331 330 331 330 331 331 330 329 329 327 329 329 329 330 329 326 324 325 325 324 323 322 322 321 321
339 340 341 338 339 339 347 341 349 347 347 347 345 346 346 344 342 340 339 338 337 337 336 334 333 331 330 332 333 333 332 331 329 328 327 327 329 327 327 325 324 326 325 324 323 322 322 322 322
333 331 332 334 339 340 338 342 340 350 349 348 346 345 346 345 342 340 339 338 337 337 336 335 333 333 333 332 332 332 331 330 328 328 326 327 325 325 325 324 324 326 326 325 325 324 322 323 323
330 330 331 331 334 336 336 337 338 340 351 350 347 346 346 345 341 340 339 337 336 337 335 335 334 334 334 333 332 330 330 329 328 323 324 325 323 322 321 322 324 325 324 326 327 326 325 323 323
329 330 331 332 332 337 336 336 337 338 341 343 346 347 346 344 341 339 337 337 336 336 335 335 336 336 336 335 334 334 331 325 322 322 321 322 323 320 319 320 319 319 320 321 321 323 325 325 324
330 332 330 330 330 336 337 345 340 335 345 344 345 345 346 345 342 340 337 336 335 335 335 336 337 337 338 336 335 333 331 328 325 321 319 321 320 320 319 319 319 319 318 317 319 320 322 323 324
331 330 329 330 331 335 339 342 342 341 343 344 345 346 346 345 343 342 340 338 336 336 335 337 337 338 338 337 333 329 324 320 319 319 318 321 320 320 319 319 319 318 318 318 318 319 320 321 324
331 331 330 331 332 339 339 342 343 340 344 346 340 338 341 343 343 342 338 338 338 337 335 327 337 336 336 336 330 320 322 319 318 318 319 320 321 321 319 320 317 318 317 317 318 319 319 321 322
330 330 330 332 339 344 342 342 342 342 338 335 333 335 338 340 344 342 338 340 342 336 334 335 333 337 332 327 324 324 324 323 323 322 321 319 320 318 317 319 318 319 317 317 317 318 319 320 320
329 336 343 344 339 339 339 339 342 336 334 333 333 333 338 341 343 343 342 343 340 339 338 334 334 331 325 322 323 324 324 326 327 325 323 320 319 318 317 318 317 317 316 317 317 317 318 319 320
333 341 343 340 345 338 331 341 343 334 333 333 334 334 336 338 338 338 338 337 335 332 329 328 327 323 321 322 324 325 325 324 322 321 323 323 319 317 318 318 317 316 316 316 317 317 318 319 320
331 342 339 336 333 336 337 338 335 335 333 332 334 336 336 336 336 336 335 333 330 328 328 326 322 317 315 317 325 324 323 323 322 321 321 319 318 317 316 315 315 315 315 316 317 317 318 319 319
332 334 335 333 337 339 339 337 339 335 334 334 333 335 336 335 334 334 334 332 329 326 323 322 320 318 320 322 321 321 321 320 319 317 316 315 315 314 314 314 315 315 315 314 315 317 317 318 318
336 336 338 342 337 340 342 340 334 335 334 335 333 333 334 334 334 331 329 328 325 321 320 320 321 320 320 320 320 320 319 317 315 314 314 313 313 312 312 312 314 314 314 314 315 317 318 319 319
333 335 336 337 337 340 340 338 334 333 333 333 331 333 334 333 332 328 326 322 323 320 320 319 320 320 320 319 317 315 314 313 313 312 312 311 311 311 311 311 311 312 312 314 316 317 318 318 319
Wind_Speed
6 7 9 9 5 2 1 5 7 7 9 7 9 9 11 12 7 4 13 11 18 16 14 12 12 12 10 10 11 11 11 11 10 11 11 11 10 10 10 9 9 8 8 8 8 8 7 5 4
11 6 11 8 3 4 4 9 10 13 11 7 6 6 4 9 9 13 14 14 17 16 14 13 13 11 11 10 10 11 10 10 10 10 9 8 8 9 10 10 10 10 10 9 8 8 7 6 5
9 8 3 3 7 2 10 7 14 10 5 2 6 5 6 4 11 9 19 17 16 15 14 13 12 11 10 9 9 9 8 8 8 8 8 8 8 9 8 8 9 9 9 9 9 8 7 7 6
15 12 3 2 13 14 13 12 8 11 9 2 5 11 10 7 9 10 18 17 16 15 14 13 13 11 10 9 8 8 8 7 7 7 6 6 6 6 6 7 7 8 7 8 8 8 7 7 6
15 8 9 5 13 9 11 7 7 8 4 6 4 10 10 7 11 18 16 15 14 15 13 12 13 11 9 8 8 7 7 7 7 7 6 6 5 5 5 5 7 8 7 7 8 7 6 6 6
9 6 6 8 9 7 8 5 5 8 3 5 7 12 7 10 13 17 17 15 14 13 15 13 13 11 9 8 7 6 7 7 7 6 7 5 4 4 4 3 6 7 5 6 6 6 7 5 4
13 10 11 8 8 10 6 3 4 6 6 7 2 4 7 12 15 17 15 15 13 16 16 13 12 10 9 7 6 5 5 5 5 5 4 5 6 5 7 4 4 6 5 5 4 4 6 5 7
12 6 7 9 7 10 10 3 5 6 11 5 6 2 7 17 18 18 15 16 16 14 13 14 13 10 9 8 5 5 5 4 3 2 3 3 2 7 6 5 9 8 5 5 6 7 8 10 11
11 7 3 12 5 8 9 9 4 3 6 1 4 8 10 23 19 16 18 17 15 13 13 13 11 9 6 9 7 5 5 4 2 1 3 3 3 5 6 6 12 9 6 6 7 9 11 11 11
14 0 5 11 9 4 11 7 10 5 6 6 5 6 15 21 20 17 16 15 14 13 12 10 8 8 7 6 5 4 5 6 2 1 2 4 3 4 7 6 8 6 7 6 4 5 10 9 12
2 2 4 10 4 3 5 8 4 6 4 6 11 13 14 17 18 17 16 14 15 14 12 10 10 8 8 6 5 5 4 3 5 3 3 3 5 2 7 8 4 6 6 7 7 9 10 9 11
3 2 3 8 2 5 8 6 8 8 4 5 4 14 17 16 17 17 16 14 15 15 13 11 11 9 5 4 4 1 4 1 5 3 4 5 7 5 6 8 8 8 8 8 8 11 9 12 11
8 5 0 4 4 6 7 8 9 7 5 6 5 10 16 15 17 18 15 12 14 15 14 12 9 8 7 5 3 3 4 5 4 7 5 7 9 7 9 9 10 10 10 11 11 11 11 12 12
4 2 4 3 5 3 8 10 9 7 6 8 9 12 14 15 17 17 16 14 13 15 14 12 10 9 8 6 5 5 6 6 7 7 8 7 10 10 12 12 13 12 13 12 11 14 14 13 12
2 9 8 10 6 5 6 15 16 8 9 10 11 11 13 14 18 18 18 17 16 15 14 12 12 11 10 8 8 8 9 9 8 7 7 9 12 13 12 15 15 16 12 12 14 14 13 15 14
12 8 13 9 5 4 5 9 9 10 10 10 12 11 12 14 18 19 19 17 17 16 14 14 13 12 11 10 9 10 9 9 11 12 10 11 11 15 13 16 17 13 14 14 16 16 16 16 16
12 9 8 9 7 5 9 13 8 2 5 9 12 12 12 13 16 18 18 19 18 15 14 15 14 13 12 11 10 9 9 10 13 14 12 14 7 13 14 17 18 17 16 17 16 19 18 18 19
8 12 7 8 5 8 12 14 15 11 9 9 12 11 13 15 16 17 18 18 18 17 17 16 15 13 12 12 10 9 10 14 11 12 13 8 14 16 15 17 19 15 20 18 17 22 23 18 20
9 10 13 10 4 4 13 15 12 6 11 9 11 12 12 14 15 20 19 18 18 19 17 16 15 13 12 11 11 13 13 14 10 10 6 8 12 15 16 17 15 16 17 17 20 23 22 21 22
10 17 12 13 7 8 15 18 14 15 8 11 11 12 12 13 13 15 17 19 19 17 13 14 14 14 14 12 10 8 8 10 12 12 8 9 6 12 13 13 16 17 19 19 20 21 23 24 22
11 15 13 17 14 12 18 14 21 8 7 6 6 9 11 11 14 13 17 19 18 18 18 20 16 18 14 11 8 8 11 13 11 6 6 2 8 10 12 12 13 15 18 23 21 23 20 22 22
17 8 16 17 16 14 12 14 20 18 13 23 11 5 8 11 11 10 12 16 17 16 17 12 19 19 12 10 8 5 10 11 10 12 12 6 13 12 13 11 12 15 19 24 24 24 18 19 20
17 17 13 17 18 24 12 4 5 25 8 11 7 9 5 7 9 10 11 18 25 16 13 14 15 1 4 8 7 6 11 10 12 13 13 12 16 12 16 10 11 17 18 24 24 23 22 19 21
19 15 18 22 4 5 12 2 6 10 12 13 13 11 9 5 7 6 13 2 7 8 8 19 10 8 11 6 6 10 11 12 14 15 15 21 12 20 19 8 12 19 22 23 23 22 21 18 21
22 13 10 19 11 6 4 11 8 14 12 12 12 11 6 5 6 10 12 9 6 8 11 18 15 11 4 6 6 13 13 13 13 19 20 20 19 21 24 17 17 22 21 24 24 23 21 20 20
3 13 10 10 7 18 12 1 1 8 10 9 8 8 4 2 5 2 3 6 6 15 9 12 11 5 14 5 7 11 13 15 16 16 13 16 20 22 20 21 20 22 23 25 23 23 22 18 20
13 4 24 10 16 14 5 7 17 3 7 12 10 7 9 4 4 6 8 5 20 15 16 10 10 6 13 14 9 9 12 12 13 14 15 19 19 22 25 27 25 24 23 24 23 23 22 19 22
11 16 12 8 10 15 7 8 5 10 10 12 12 6 7 8 5 4 10 22 16 13 7 6 8 14 13 10 10 10 10 11 14 16 18 21 22 23 25 25 22 23 23 25 26 23 22 20 22
3 11 4 9 4 7 9 1 7 9 11 13 13 11 6 4 7 14 14 8 8 5 4 8 5 9 6 9 10 11 13 14 17 20 22 24 23 23 24 24 23 21 26 26 23 20 23 24 22
12 10 10 7 9 7 13 3 8 9 11 11 12 12 11 9 11 8 8 7 5 9 4 6 8 7 8 10 14 16 17 18 20 21 23 23 24 23 23 23 21 23 28 23 21 21 22 21 20
Wind_Direction
170 187 215 241 249 131 88 115 77 121 108 51 52 38 73 35 11 85 140 123 124 138 137 124 116 113 107 102 101 100 95 89 83 77 74 74 73 70 66 61 56 53 44 35 31 29 26 30 32
231 205 233 263 139 227 159 39 88 56 67 86 122 160 144 72 62 124 129 138 129 137 135 128 125 122 114 107 99 91 88 84 80 76 69 63 62 63 64 60 53 48 44 36 30 20 10 6 358
261 232 206 278 46 224 98 169 93 88 107 224 144 344 27 62 111 125 136 145 139 136 134 135 128 120 113 106 102 98 93 87 80 71 68 64 65 65 59 50 47 44 37 32 28 24 13 359 339
243 218 309 20 176 83 87 79 124 137 115 263 85 94 92 88 124 131 145 145 143 140 135 138 132 127 117 110 104 101 92 85 79 69 61 63 62 58 54 43 32 25 19 17 11 6 2 3 354
236 259 159 195 74 69 83 104 57 97 75 104 256 100 99 105 118 142 148 150 150 138 143 142 137 130 125 120 113 102 91 83 73 69 65 60 57 41 29 22 17 4 353 353 350 350 347 340 349
263 230 176 100 93 106 109 109 132 70 55 86 100 114 113 144 155 155 159 162 158 157 151 145 147 141 136 126 115 106 99 89 81 75 70 61 54 37 15 30 13 13 2 354 358 8 8 9 346
251 286 78 133 123 130 132 23 41 84 148 84 114 54 114 166 156 162 168 167 171 172 152 154 155 155 146 138 132 122 114 101 86 84 61 59 57 42 43 36 11 345 352 353 356 347 340 333 324
297 92 197 133 150 102 87 195 59 294 87 100 327 96 154 171 165 167 167 174 179 171 166 166 158 163 166 149 152 158 158 140 116 90 59 43 83 25 25 21 355 333 321 310 301 303 310 309 302
265 347 235 117 64 125 149 150 119 113 152 199 74 29 97 159 169 174 175 185 181 176 173 171 169 160 165 147 175 173 180 160 136 73 19 313 275 335 347 337 342 344 327 304 288 297 303 306 284
260 56 156 32 71 64 138 279 135 224 154 170 150 93 133 159 175 182 190 187 181 183 170 166 156 171 168 166 154 183 188 204 212 274 270 304 342 292 328 290 318 335 344 309 287 308 325 297 300
65 226 58 118 49 325 299 167 180 223 186 274 184 152 161 172 182 191 194 195 183 181 178 183 168 180 192 159 183 190 196 208 207 235 286 288 318 293 309 317 285 325 290 325 285 284 281 319 303
298 85 1 64 87 280 271 301 162 225 280 64 125 146 171 183 187 196 202 203 172 178 188 194 179 177 181 184 206 203 253 288 276 137 284 270 297 305 313 307 312 295 307 315 295 304 310 297 292
250 126 275 114 270 264 285 251 288 246 202 153 181 169 180 189 191 196 204 196 180 183 188 202 196 192 181 194 199 265 285 278 308 281 261 276 295 296 292 304 297 297 292 298 302 303 303 297 285
5 350 290 246 274 262 280 256 219 238 225 184 198 192 189 192 196 193 195 191 191 181 192 207 197 186 193 215 230 262 258 280 262 278 272 274 280 291 295 291 291 286 288 290 298 302 302 292 291
271 256 257 200 227 262 283 257 229 222 172 209 210 209 198 195 196 194 194 190 193 193 198 201 200 194 200 213 234 259 276 286 284 287 288 277 274 287 282 286 288 291 284 280 274 271 284 280 282
234 206 297 133 168 165 246 306 65 172 169 231 215 219 207 197 200 196 192 198 201 202 197 200 203 198 211 220 236 260 277 281 292 282 272 252 267 280 276 289 290 279 274 269 270 273 282 279 279
334 249 229 172 170 207 218 295 82 105 215 240 237 217 213 209 202 197 197 196 203 200 196 200 206 211 213 224 242 262 269 272 277 281 281 286 280 288 291 291 294 294 279 271 275 272 272 276 273
293 329 317 314 116 217 254 249 270 183 216 246 256 229 215 213 201 201 203 202 198 200 203 207 206 211 220 234 246 260 258 255 265 265 294 319 306 301 297 299 299 284 279 278 276 273 268 277 282
323 311 293 299 156 265 280 273 272 217 201 243 250 250 229 223 206 191 200 201 200 205 204 207 209 210 217 229 237 241 250 247 264 300 338 330 309 308 303 298 312 299 291 282 284 279 269 274 274
292 279 318 282 268 269 268 270 279 279 259 222 226 231 237 221 215 192 195 200 204 204 202 215 223 216 212 219 237 271 301 301 301 292 289 282 283 309 304 315 307 303 298 292 285 275 279 275 270
249 309 308 311 298 252 265 320 266 307 177 208 209 236 224 231 218 192 197 206 209 199 201 218 212 220 208 216 218 239 255 250 248 224 284 132 323 301 301 299 299 303 296 288 290 287 271 273 268
280 282 289 295 286 274 192 286 345 312 34 4 180 199 240 234 218 186 190 197 206 209 211 225 220 210 190 206 232 248 306 295 302 298 278 303 286 270 277 277 291 296 303 296 285 275 285 274 268
286 294 296 288 283 350 353 17 236 252 132 189 86 11 243 231 183 203 166 219 197 163 184 240 253 92 206 190 259 280 242 290 304 305 307 287 281 262 277 270 266 288 307 298 294 290 289 275 261
288 289 273 267 81 259 212 48 281 18 39 29 14 30 6 353 120 171 174 174 225 149 188 220 200 184 193 192 227 255 278 288 292 298 299 286 295 305 300 280 291 294 308 287 284 283 284 278 268
254 30 346 289 245 278 80 271 27 36 38 32 22 5 49 20 127 174 147 193 200 194 176 172 178 162 219 235 226 246 265 276 275 268 268 299 290 295 302 312 306 297 292 290 283 285 285 280 272
243 157 216 334 330 269 304 320 104 4 57 41 43 7 59 57 116 124 121 156 176 81 25 62 62 34 311 324 320 319 306 291 294 307 317 300 299 297 300 304 294 294 293 285 285 287 281 282 276
283 144 231 296 301 321 16 360 53 341 11 17 23 58 355 224 110 122 113 166 92 74 65 63 54 360 327 300 300 292 281 291 302 302 304 296 306 307 302 302 297 287 285 284 284 279 279 279 273
263 337 295 280 289 286 335 17 28 23 9 7 359 60 98 284 103 99 91 73 57 68 73 35 355 313 276 270 296 310 303 311 322 316 311 306 305 305 300 295 293 293 288 291 288 283 283 278 273
244 233 117 233 344 327 304 143 54 11 20 7 356 19 61 93 65 74 67 63 63 30 324 304 287 302 321 330 316 316 317 316 312 310 309 307 305 301 297 294 284 290 291 283 286 286 283 275 270
332 347 345 320 299 199 259 119 87 28 23 21 7 34 23 23 61 86 85 88 331 322 272 358 11 322 329 331 326 321 321 320 317 316 310 307 302 299 296 290 290 290 287 290 296 284 277 272 266